DW9498 Weather Reports


time (UTC)temp
C
wind
direction
speed
KPH
gust
KPH
rain 1hr
cm
rain 24hr
cm
rain mn
cm
humidity
%
barometer
mb
20260502130410 3 358 0.0 1.6 0.00 0.00 0.00 73 1022.0
20260502123336 1 17 0.0 0.0 0.00 0.00 0.00 79 1021.8
20260502122326 1 17 0.0 0.0 0.00 0.00 0.00 82 1021.8
20260502121358 0 17 0.0 0.0 0.00 0.00 0.00 83 1021.8
20260502120344 0 17 0.0 1.6 0.00 0.00 0.00 82 1021.7
20260502115329 0 17 0.0 0.0 0.00 0.00 0.00 82 1021.7
20260502114332 0 17 0.0 0.0 0.00 0.00 0.00 82 1021.6
20260502112355 0 3 0.0 0.0 0.00 0.00 0.00 81 1021.5
20260502111342 0 3 0.0 0.0 0.00 0.00 0.00 80 1021.4
20260502110353 0 3 0.0 0.0 0.00 0.00 0.00 80 1021.4
20260502105346 0 3 0.0 0.0 0.00 0.00 0.00 80 1021.4
20260502104329 0 3 0.0 0.0 0.00 0.00 0.00 80 1021.3
20260502103322 0 3 0.0 0.0 0.00 0.00 0.00 79 1021.3
20260502102335 0 3 0.0 0.0 0.00 0.00 0.00 79 1021.3
20260502101340 0 3 0.0 0.0 0.00 0.00 0.00 79 1021.2
20260502100332 0 3 0.0 0.0 0.00 0.00 0.00 79 1021.1
20260502091341 1 3 0.0 0.0 0.00 0.00 0.00 78 1020.9
20260502090406 1 3 0.0 0.0 0.00 0.00 0.00 77 1020.9
20260502071325 2 3 0.0 0.0 0.00 0.00 0.00 70 1020.9
20260502070358 2 3 0.0 0.0 0.00 0.00 0.00 70 1021.0
20260502065329 2 3 0.0 0.0 0.00 0.00 0.00 69 1020.9
20260502064337 2 3 0.0 0.0 0.00 0.00 0.00 69 1020.9
20260502063346 2 3 0.0 0.0 0.00 0.00 0.00 69 1021.0
20260502062330 3 3 0.0 0.0 0.00 0.00 0.00 68 1020.9
20260502061359 3 3 0.0 0.0 0.00 0.00 0.00 68 1020.8
20260502060331 3 3 0.0 0.0 0.00 0.00 0.00 67 1020.8
20260502055324 3 3 0.0 0.0 0.00 0.00 0.00 65 1020.7
20260502054329 3 3 0.0 0.0 0.00 0.00 0.00 65 1020.6
20260502053334 3 3 0.0 0.0 0.00 0.00 0.00 63 1020.6
20260502052341 3 3 0.0 0.0 0.00 0.00 0.00 62 1020.6
20260502051324 4 3 0.0 0.0 0.00 0.00 0.00 62 1020.5
20260502050334 4 3 0.0 0.0 0.00 0.00 0.00 61 1020.4
20260502045326 4 3 0.0 0.0 0.00 0.00 0.00 62 1020.4
20260502044349 5 3 0.0 0.0 0.00 0.00 0.00 60 1020.3
20260502043329 5 3 0.0 0.0 0.00 0.00 0.00 59 1020.3
20260502042339 5 3 0.0 0.0 0.00 0.00 0.00 58 1020.3
20260502041346 5 3 0.0 0.0 0.00 0.00 0.00 57 1020.3
20260502040332 5 3 0.0 0.0 0.00 0.00 0.00 56 1020.3
20260502035345 6 3 0.0 0.0 0.00 0.00 0.00 54 1020.2
20260502034325 6 3 0.0 0.0 0.00 0.00 0.00 53 1020.2
20260502033336 6 3 0.0 0.0 0.00 0.00 0.00 51 1020.2
20260502032328 7 3 0.0 0.0 0.00 0.00 0.00 49 1020.1
20260502031335 7 3 0.0 0.0 0.00 0.00 0.00 47 1020.1
20260502030404 8 3 0.0 0.0 0.00 0.00 0.00 46 1020.0
20260502025351 8 3 0.0 0.0 0.00 0.00 0.00 46 1019.8
20260502024341 9 3 0.0 1.6 0.00 0.00 0.00 45 1019.7
20260502023346 9 3 0.0 1.6 0.00 0.00 0.00 43 1019.6
20260502022331 10 3 0.0 3.2 0.00 0.00 0.00 41 1019.5
20260502021344 10 20 1.6 4.8 0.00 0.00 0.00 41 1019.3
20260502020324 10 11 1.6 4.8 0.00 0.00 0.00 40 1019.3
20260502015334 11 7 3.2 6.4 0.00 0.00 0.00 40 1019.1
20260502014339 11 16 1.6 6.4 0.00 0.00 0.00 39 1019.0
20260502013345 11 13 4.8 6.4 0.00 0.00 0.00 38 1018.9
20260502012351 11 17 4.8 11.3 0.00 0.00 0.00 37 1018.8
20260502011338 11 9 1.6 8.0 0.00 0.00 0.00 38 1018.6
20260502010327 11 16 1.6 8.0 0.00 0.00 0.00 38 1018.6
20260502005340 12 326 3.2 9.7 0.00 0.00 0.00 36 1018.5
20260502004328 12 5 3.2 11.3 0.00 0.00 0.00 36 1018.4
20260502003338 12 343 4.8 12.9 0.00 0.00 0.00 35 1018.3
20260502002353 12 347 3.2 14.5 0.00 0.00 0.00 36 1018.3
20260502001346 12 347 6.4 17.7 0.00 0.00 0.00 34 1018.2
20260502000333 12 351 8.0 12.9 0.00 0.00 0.00 34 1018.2
20260501235324 13 17 4.8 12.9 0.00 0.00 0.00 35 1018.3
20260501234332 13 345 9.7 17.7 0.00 0.00 0.00 33 1018.2
20260501233346 13 9 6.4 19.3 0.00 0.00 0.00 33 1018.1
20260501232353 13 24 11.3 17.7 0.00 0.00 0.00 31 1018.1
20260501231336 13 5 6.4 17.7 0.00 0.00 0.00 34 1018.1
20260501230347 13 321 6.4 17.7 0.00 0.00 0.00 33 1018.1
20260501225341 13 15 8.0 22.5 0.00 0.00 0.00 33 1018.0
20260501224326 13 12 8.0 17.7 0.00 0.00 0.00 33 1018.0
20260501223353 14 10 4.8 16.1 0.00 0.00 0.00 34 1018.1
20260501222349 14 12 8.0 17.7 0.00 0.00 0.00 32 1018.0
20260501221334 14 345 4.8 17.7 0.00 0.00 0.00 32 1017.9
20260501220325 14 351 6.4 14.5 0.00 0.00 0.00 34 1017.9
20260501215340 14 18 9.7 19.3 0.00 0.00 0.00 34 1018.0
20260501214326 14 30 6.4 14.5 0.00 0.00 0.00 32 1018.0
20260501213357 14 31 8.0 17.7 0.00 0.00 0.00 33 1018.2
20260501212330 14 26 4.8 16.1 0.00 0.00 0.00 34 1018.1
20260501211334 14 344 6.4 16.1 0.00 0.00 0.00 34 1018.3
20260501210332 14 346 6.4 19.3 0.00 0.00 0.00 35 1018.2
20260501205340 15 58 4.8 16.1 0.00 0.00 0.00 37 1018.1
20260501204329 13 20 4.8 12.9 0.00 0.00 0.00 35 1018.4
20260501203347 13 22 6.4 16.1 0.00 0.00 0.00 37 1018.4
20260501202339 13 359 6.4 12.9 0.00 0.00 0.00 37 1018.5
20260501201340 13 22 6.4 19.3 0.00 0.00 0.00 39 1018.6
20260501200412 13 314 6.4 17.7 0.00 0.00 0.00 37 1018.6
20260501195337 13 26 8.0 14.5 0.00 0.00 0.00 39 1018.5
20260501194325 14 6 6.4 16.1 0.00 0.00 0.00 40 1018.6
20260501193333 13 3 4.8 16.1 0.00 0.00 0.00 41 1018.5
20260501192402 13 342 3.2 22.5 0.00 0.00 0.00 40 1018.5
20260501191341 13 38 11.3 19.3 0.00 0.00 0.00 42 1018.5
20260501190327 13 19 4.8 17.7 0.00 0.00 0.00 44 1018.6
20260501185342 13 332 4.8 14.5 0.00 0.00 0.00 45 1018.7
20260501184329 13 3 8.0 14.5 0.00 0.00 0.00 46 1018.8
20260501183338 13 337 8.0 14.5 0.00 0.00 0.00 45 1018.7
20260501182340 13 216 4.8 14.5 0.00 0.00 0.00 46 1018.8
20260501181326 13 24 4.8 11.3 0.00 0.00 0.00 48 1018.7
20260501180330 13 22 4.8 14.5 0.00 0.00 0.00 47 1018.9
20260501175339 13 360 6.4 14.5 0.00 0.00 0.00 47 1018.9
20260501174325 12 349 8.0 16.1 0.00 0.00 0.00 48 1019.0
20260501173338 12 9 6.4 19.3 0.00 0.00 0.00 50 1019.0
20260501172325 12 3 6.4 12.9 0.00 0.00 0.00 53 1019.0
20260501171329 12 332 8.0 17.7 0.00 0.00 0.00 52 1019.1
20260501170336 12 13 4.8 16.1 0.00 0.00 0.00 52 1019.1
20260501165347 12 36 4.8 16.1 0.00 0.00 0.00 56 1019.0
20260501164345 11 350 8.0 24.1 0.00 0.00 0.00 56 1019.1
20260501163351 11 22 9.7 22.5 0.00 0.00 0.00 56 1019.0
20260501162323 11 10 8.0 19.3 0.00 0.00 0.00 58 1019.0
20260501161351 11 344 9.7 16.1 0.00 0.00 0.00 58 1018.9
20260501160359 11 26 11.3 19.3 0.00 0.00 0.00 58 1019.0
20260501155330 11 4 6.4 12.9 0.00 0.00 0.00 61 1018.8
20260501154336 10 13 11.3 20.9 0.00 0.00 0.00 60 1018.9
20260501153325 10 19 6.4 17.7 0.00 0.00 0.00 63 1018.9
20260501152335 10 18 6.4 11.3 0.00 0.00 0.00 63 1018.8
20260501151336 10 351 6.4 12.9 0.00 0.00 0.00 63 1018.7
20260501150344 9 341 4.8 11.3 0.00 0.00 0.00 61 1018.6
20260501145322 9 17 8.0 19.3 0.00 0.00 0.00 61 1018.7
20260501144343 8 327 6.4 12.9 0.00 0.00 0.00 62 1018.6
20260501143330 8 335 4.8 11.3 0.00 0.00 0.00 62 1018.7